Year,Month,Day,Hour,Minute,Value (Times are PST for temperature in C)
2015,06,29,00,00,21.60
2015,06,29,00,01,21.60
2015,06,29,00,02,21.70
2015,06,29,00,03,21.70
2015,06,29,00,04,21.70
2015,06,29,00,05,21.60
2015,06,29,00,06,21.60
2015,06,29,00,07,21.60
2015,06,29,00,08,21.60
2015,06,29,00,09,21.50
2015,06,29,00,10,21.50
2015,06,29,00,11,21.40
2015,06,29,00,12,21.40
2015,06,29,00,13,21.40
2015,06,29,00,14,21.40
2015,06,29,00,15,21.30
2015,06,29,00,16,21.30
2015,06,29,00,17,21.30
2015,06,29,00,18,21.30
2015,06,29,00,19,21.30
2015,06,29,00,20,21.30
2015,06,29,00,21,21.30
2015,06,29,00,22,21.30
2015,06,29,00,23,21.30
2015,06,29,00,24,21.30
2015,06,29,00,25,21.20
2015,06,29,00,26,21.20
2015,06,29,00,27,21.20
2015,06,29,00,28,21.20
2015,06,29,00,29,21.20
2015,06,29,00,30,21.20
2015,06,29,00,31,21.10
2015,06,29,00,32,21.10
2015,06,29,00,33,21.10
2015,06,29,00,34,21.10
2015,06,29,00,35,21.10
2015,06,29,00,36,21.10
2015,06,29,00,37,21.10
2015,06,29,00,38,21.10
2015,06,29,00,39,21.10
2015,06,29,00,40,21.00
2015,06,29,00,41,21.00
2015,06,29,00,42,20.90
2015,06,29,00,43,20.90
2015,06,29,00,44,20.90
2015,06,29,00,45,20.90
2015,06,29,00,46,20.90
2015,06,29,00,47,20.80
2015,06,29,00,48,20.80
2015,06,29,00,49,20.90
2015,06,29,00,50,20.90
2015,06,29,00,51,20.90
2015,06,29,00,52,20.90
2015,06,29,00,53,21.00
2015,06,29,00,54,21.00
2015,06,29,00,55,21.00
2015,06,29,00,56,21.10
2015,06,29,00,57,21.10
2015,06,29,00,58,21.20
2015,06,29,00,59,21.20
2015,06,29,01,00,21.30
2015,06,29,01,01,21.30
2015,06,29,01,02,21.40
2015,06,29,01,03,21.50
2015,06,29,01,04,21.60
2015,06,29,01,05,21.60
2015,06,29,01,06,21.60
2015,06,29,01,07,21.70
2015,06,29,01,08,21.70
2015,06,29,01,09,21.70
2015,06,29,01,10,21.70
2015,06,29,01,11,21.70
2015,06,29,01,12,21.70
2015,06,29,01,13,21.70
2015,06,29,01,14,21.70
2015,06,29,01,15,21.70
2015,06,29,01,16,21.60
2015,06,29,01,17,21.60
2015,06,29,01,18,21.60
2015,06,29,01,19,21.60
2015,06,29,01,20,21.60
2015,06,29,01,21,21.60
2015,06,29,01,22,21.50
2015,06,29,01,23,21.50
2015,06,29,01,24,21.40
2015,06,29,01,25,21.40
2015,06,29,01,26,21.40
2015,06,29,01,27,21.30
2015,06,29,01,28,21.30
2015,06,29,01,29,21.30
2015,06,29,01,30,21.30
2015,06,29,01,31,21.30
2015,06,29,01,32,21.30
2015,06,29,01,33,21.30
2015,06,29,01,34,21.30
2015,06,29,01,35,21.40
2015,06,29,01,36,21.40
2015,06,29,01,37,21.40
2015,06,29,01,38,21.40
2015,06,29,01,39,21.40
2015,06,29,01,40,21.40
2015,06,29,01,41,21.40
2015,06,29,01,42,21.40
2015,06,29,01,43,21.40
2015,06,29,01,44,21.40
2015,06,29,01,45,21.40
2015,06,29,01,46,21.40
2015,06,29,01,47,21.40
2015,06,29,01,48,21.40
2015,06,29,01,49,21.40
2015,06,29,01,50,21.40
2015,06,29,01,51,21.40
2015,06,29,01,52,21.40
2015,06,29,01,53,21.40
2015,06,29,01,54,21.40
2015,06,29,01,55,21.50
2015,06,29,01,56,21.50
2015,06,29,01,57,21.50
2015,06,29,01,58,21.50
2015,06,29,01,59,21.50
2015,06,29,02,00,21.60
2015,06,29,02,01,21.60
2015,06,29,02,02,21.60
2015,06,29,02,03,21.60
2015,06,29,02,04,21.60
2015,06,29,02,05,21.60
2015,06,29,02,06,21.60
2015,06,29,02,07,21.60
2015,06,29,02,08,21.60
2015,06,29,02,09,21.70
2015,06,29,02,10,21.70
2015,06,29,02,11,21.70
2015,06,29,02,12,21.70
2015,06,29,02,13,21.70
2015,06,29,02,14,21.70
2015,06,29,02,15,21.80
2015,06,29,02,16,21.70
2015,06,29,02,17,21.70
2015,06,29,02,18,21.70
2015,06,29,02,19,21.70
2015,06,29,02,20,21.70
2015,06,29,02,21,21.70
2015,06,29,02,22,21.70
2015,06,29,02,23,21.60
2015,06,29,02,24,21.60
2015,06,29,02,25,21.50
2015,06,29,02,26,21.50
2015,06,29,02,27,21.40
2015,06,29,02,28,21.40
2015,06,29,02,29,21.40
2015,06,29,02,30,21.50
2015,06,29,02,31,21.50
2015,06,29,02,32,21.50
2015,06,29,02,33,21.50
2015,06,29,02,34,21.50
2015,06,29,02,35,21.40
2015,06,29,02,36,21.30
2015,06,29,02,37,21.30
2015,06,29,02,38,21.20
2015,06,29,02,39,21.20
2015,06,29,02,40,21.20
2015,06,29,02,41,21.20
2015,06,29,02,42,21.30
2015,06,29,02,43,21.40
2015,06,29,02,44,21.40
2015,06,29,02,45,21.50
2015,06,29,02,46,21.60
2015,06,29,02,47,21.60
2015,06,29,02,48,21.60
2015,06,29,02,49,21.60
2015,06,29,02,50,21.60
2015,06,29,02,51,21.60
2015,06,29,02,52,21.60
2015,06,29,02,53,21.60
2015,06,29,02,54,21.60
2015,06,29,02,55,21.60
2015,06,29,02,56,21.60
2015,06,29,02,57,21.70
2015,06,29,02,58,21.70
2015,06,29,02,59,21.70
2015,06,29,03,00,21.80
2015,06,29,03,01,21.80
2015,06,29,03,02,21.80
2015,06,29,03,03,21.80
2015,06,29,03,04,21.80
2015,06,29,03,05,21.90
2015,06,29,03,06,21.90
2015,06,29,03,07,21.90
2015,06,29,03,08,21.90
2015,06,29,03,09,21.90
2015,06,29,03,10,21.90
2015,06,29,03,11,21.90
2015,06,29,03,12,21.90
2015,06,29,03,13,21.90
2015,06,29,03,14,21.90
2015,06,29,03,15,21.90
2015,06,29,03,16,21.90
2015,06,29,03,17,21.90
2015,06,29,03,18,21.90
2015,06,29,03,19,21.90
2015,06,29,03,20,21.80
2015,06,29,03,21,21.80
2015,06,29,03,22,21.80
2015,06,29,03,23,21.80
2015,06,29,03,24,21.70
2015,06,29,03,25,21.70
2015,06,29,03,26,21.60
2015,06,29,03,27,21.50
2015,06,29,03,28,21.40
2015,06,29,03,29,21.40
2015,06,29,03,30,21.30
2015,06,29,03,31,21.30
2015,06,29,03,32,21.30
2015,06,29,03,33,21.20
2015,06,29,03,34,21.20
2015,06,29,03,35,21.20
2015,06,29,03,36,21.20
2015,06,29,03,37,21.30
2015,06,29,03,38,21.30
2015,06,29,03,39,21.30
2015,06,29,03,40,21.30
2015,06,29,03,41,21.30
2015,06,29,03,42,21.40
2015,06,29,03,43,21.40
2015,06,29,03,44,21.40
2015,06,29,03,45,21.40
2015,06,29,03,46,21.40
2015,06,29,03,47,21.40
2015,06,29,03,48,21.40
2015,06,29,03,49,21.30
2015,06,29,03,50,21.30
2015,06,29,03,51,21.30
2015,06,29,03,52,21.30
2015,06,29,03,53,21.30
2015,06,29,03,54,21.30
2015,06,29,03,55,21.30
2015,06,29,03,56,21.30
2015,06,29,03,57,21.30
2015,06,29,03,58,21.40
2015,06,29,03,59,21.40
2015,06,29,04,00,21.40
2015,06,29,04,01,21.40
2015,06,29,04,02,21.40
2015,06,29,04,03,21.40
2015,06,29,04,04,21.40
2015,06,29,04,05,21.40
2015,06,29,04,06,21.40
2015,06,29,04,07,21.40
2015,06,29,04,08,21.40
2015,06,29,04,09,21.40
2015,06,29,04,10,21.40
2015,06,29,04,11,21.40
2015,06,29,04,12,21.40
2015,06,29,04,13,21.40
2015,06,29,04,14,21.40
2015,06,29,04,15,21.40
2015,06,29,04,16,21.40
2015,06,29,04,17,21.40
2015,06,29,04,18,21.40
2015,06,29,04,19,21.40
2015,06,29,04,20,21.40
2015,06,29,04,21,21.40
2015,06,29,04,22,21.40
2015,06,29,04,23,21.40
2015,06,29,04,24,21.30
2015,06,29,04,25,21.30
2015,06,29,04,26,21.30
2015,06,29,04,27,21.30
2015,06,29,04,28,21.30
2015,06,29,04,29,21.30
2015,06,29,04,30,21.30
2015,06,29,04,31,21.30
2015,06,29,04,32,21.30
2015,06,29,04,33,21.30
2015,06,29,04,34,21.30
2015,06,29,04,35,21.30
2015,06,29,04,36,21.30
2015,06,29,04,37,21.30
2015,06,29,04,38,21.30
2015,06,29,04,39,21.30
2015,06,29,04,40,21.30
2015,06,29,04,41,21.30
2015,06,29,04,42,21.30
2015,06,29,04,43,21.30
2015,06,29,04,44,21.30
2015,06,29,04,45,21.20
2015,06,29,04,46,21.10
2015,06,29,04,47,21.00
2015,06,29,04,48,20.90
2015,06,29,04,49,20.80
2015,06,29,04,50,20.70
2015,06,29,04,51,20.70
2015,06,29,04,52,20.60
2015,06,29,04,53,20.60
2015,06,29,04,54,20.60
2015,06,29,04,55,20.60
2015,06,29,04,56,20.60
2015,06,29,04,57,20.70
2015,06,29,04,58,20.70
2015,06,29,04,59,20.60
2015,06,29,05,00,20.60
2015,06,29,05,01,20.60
2015,06,29,05,02,20.50
2015,06,29,05,03,20.50
2015,06,29,05,04,20.50
2015,06,29,05,05,20.40
2015,06,29,05,06,20.40
2015,06,29,05,07,20.40
2015,06,29,05,08,20.30
2015,06,29,05,09,20.30
2015,06,29,05,10,20.20
2015,06,29,05,11,20.20
2015,06,29,05,12,20.20
2015,06,29,05,13,20.10
2015,06,29,05,14,20.10
2015,06,29,05,15,20.10
2015,06,29,05,16,20.10
2015,06,29,05,17,20.10
2015,06,29,05,18,20.10
2015,06,29,05,19,20.10
2015,06,29,05,20,20.10
2015,06,29,05,21,20.10
2015,06,29,05,22,20.10
2015,06,29,05,23,20.10
2015,06,29,05,24,20.00
2015,06,29,05,25,20.00
2015,06,29,05,26,20.00
2015,06,29,05,27,20.00
2015,06,29,05,28,20.00
2015,06,29,05,29,20.00
2015,06,29,05,30,20.00
2015,06,29,05,31,19.90
2015,06,29,05,32,19.80
2015,06,29,05,33,19.70
2015,06,29,05,34,19.50
2015,06,29,05,35,19.20
2015,06,29,05,36,19.00
2015,06,29,05,37,18.80
2015,06,29,05,38,18.70
2015,06,29,05,39,18.60
2015,06,29,05,40,18.40
2015,06,29,05,41,18.30
2015,06,29,05,42,18.20
2015,06,29,05,43,18.10
2015,06,29,05,44,18.00
2015,06,29,05,45,17.90
2015,06,29,05,46,17.80
2015,06,29,05,47,17.60
2015,06,29,05,48,17.50
2015,06,29,05,49,17.30
2015,06,29,05,50,17.20
2015,06,29,05,51,17.10
2015,06,29,05,52,17.10
2015,06,29,05,53,17.00
2015,06,29,05,54,16.90
2015,06,29,05,55,16.80
2015,06,29,05,56,16.70
2015,06,29,05,57,16.60
2015,06,29,05,58,16.60
2015,06,29,05,59,16.50
2015,06,29,06,00,16.40
2015,06,29,06,01,16.40
2015,06,29,06,02,16.30
2015,06,29,06,03,16.30
2015,06,29,06,04,16.30
2015,06,29,06,05,16.30
2015,06,29,06,06,16.30
2015,06,29,06,07,16.30
2015,06,29,06,08,16.30
2015,06,29,06,09,16.40
2015,06,29,06,10,16.50
2015,06,29,06,11,16.50
2015,06,29,06,12,16.60
2015,06,29,06,13,16.70
2015,06,29,06,14,16.80
2015,06,29,06,15,16.80
2015,06,29,06,16,16.80
2015,06,29,06,17,16.80
2015,06,29,06,18,16.80
2015,06,29,06,19,16.80
2015,06,29,06,20,16.80
2015,06,29,06,21,16.70
2015,06,29,06,22,16.70
2015,06,29,06,23,16.60
2015,06,29,06,24,16.60
2015,06,29,06,25,16.60
2015,06,29,06,26,16.60
2015,06,29,06,27,16.50
2015,06,29,06,28,16.50
2015,06,29,06,29,16.40
2015,06,29,06,30,16.50
2015,06,29,06,31,16.50
2015,06,29,06,32,16.60
2015,06,29,06,33,16.60
2015,06,29,06,34,16.70
2015,06,29,06,35,16.80
2015,06,29,06,36,16.80
2015,06,29,06,37,16.80
2015,06,29,06,38,16.80
2015,06,29,06,39,16.80
2015,06,29,06,40,16.70
2015,06,29,06,41,16.70
2015,06,29,06,42,16.70
2015,06,29,06,43,16.60
2015,06,29,06,44,16.50
2015,06,29,06,45,16.50
2015,06,29,06,46,16.60
2015,06,29,06,47,16.60
2015,06,29,06,48,16.70
2015,06,29,06,49,16.70
2015,06,29,06,50,16.80
2015,06,29,06,51,16.90
2015,06,29,06,52,17.00
2015,06,29,06,53,17.10
2015,06,29,06,54,17.20
2015,06,29,06,55,17.30
2015,06,29,06,56,17.50
2015,06,29,06,57,17.60
2015,06,29,06,58,17.70
2015,06,29,06,59,17.80
2015,06,29,07,00,17.80
2015,06,29,07,01,17.80
2015,06,29,07,02,17.90
2015,06,29,07,03,17.90
2015,06,29,07,04,17.90
2015,06,29,07,05,17.90
2015,06,29,07,06,17.90
2015,06,29,07,07,17.90
2015,06,29,07,08,17.90
2015,06,29,07,09,18.00
2015,06,29,07,10,18.10
2015,06,29,07,11,18.10
2015,06,29,07,12,18.10
2015,06,29,07,13,18.10
2015,06,29,07,14,18.10
2015,06,29,07,15,18.10
2015,06,29,07,16,18.10
2015,06,29,07,17,18.20
2015,06,29,07,18,18.30
2015,06,29,07,19,18.30
2015,06,29,07,20,18.30
2015,06,29,07,21,18.30
2015,06,29,07,22,18.30
2015,06,29,07,23,18.30
2015,06,29,07,24,18.30
2015,06,29,07,25,18.30
2015,06,29,07,26,18.40
2015,06,29,07,27,18.50
2015,06,29,07,28,18.60
2015,06,29,07,29,18.70
2015,06,29,07,30,18.80
2015,06,29,07,31,18.80
2015,06,29,07,32,18.90
2015,06,29,07,33,18.80
2015,06,29,07,34,18.80
2015,06,29,07,35,18.80
2015,06,29,07,36,18.80
2015,06,29,07,37,18.80
2015,06,29,07,38,18.80
2015,06,29,07,39,18.80
2015,06,29,07,40,18.80
2015,06,29,07,41,18.80
2015,06,29,07,42,18.80
2015,06,29,07,43,18.80
2015,06,29,07,44,18.80
2015,06,29,07,45,18.80
2015,06,29,07,46,18.80
2015,06,29,07,47,18.90
2015,06,29,07,48,18.90
2015,06,29,07,49,18.90
2015,06,29,07,50,19.00
2015,06,29,07,51,19.00
2015,06,29,07,52,19.00
2015,06,29,07,53,19.10
2015,06,29,07,54,19.20
2015,06,29,07,55,19.20
2015,06,29,07,56,19.30
2015,06,29,07,57,19.40
2015,06,29,07,58,19.40
2015,06,29,07,59,19.50
2015,06,29,08,00,19.60
2015,06,29,08,01,19.70
2015,06,29,08,02,19.80
2015,06,29,08,03,19.90
2015,06,29,08,04,19.90
2015,06,29,08,05,20.00
2015,06,29,08,06,20.10
2015,06,29,08,07,20.20
2015,06,29,08,08,20.20
2015,06,29,08,09,20.30
2015,06,29,08,10,20.40
2015,06,29,08,11,20.50
2015,06,29,08,12,20.60
2015,06,29,08,13,20.70
2015,06,29,08,14,20.80
2015,06,29,08,15,20.80
2015,06,29,08,16,20.80
2015,06,29,08,17,20.70
2015,06,29,08,18,20.50
2015,06,29,08,19,20.30
2015,06,29,08,20,20.10
2015,06,29,08,21,19.90
2015,06,29,08,22,19.70
2015,06,29,08,23,19.50
2015,06,29,08,24,19.30
2015,06,29,08,25,19.20
2015,06,29,08,26,19.00
2015,06,29,08,27,18.90
2015,06,29,08,28,18.80
2015,06,29,08,29,18.80
2015,06,29,08,30,18.80
2015,06,29,08,31,18.80
2015,06,29,08,32,18.80
2015,06,29,08,33,18.90
2015,06,29,08,34,18.90
2015,06,29,08,35,18.90
2015,06,29,08,36,18.90
2015,06,29,08,37,18.80
2015,06,29,08,38,18.80
2015,06,29,08,39,18.90
2015,06,29,08,40,18.90
2015,06,29,08,41,19.00
2015,06,29,08,42,19.00
2015,06,29,08,43,19.00
2015,06,29,08,44,18.90
2015,06,29,08,45,18.90
2015,06,29,08,46,18.80
2015,06,29,08,47,18.70
2015,06,29,08,48,18.60
2015,06,29,08,49,18.60
2015,06,29,08,50,18.60
2015,06,29,08,51,18.60
2015,06,29,08,52,18.70
2015,06,29,08,53,18.90
2015,06,29,08,54,19.10
2015,06,29,08,55,19.30
2015,06,29,08,56,19.40
2015,06,29,08,57,19.60
2015,06,29,08,58,19.70
2015,06,29,08,59,19.60
2015,06,29,09,00,19.50
2015,06,29,09,01,19.40
2015,06,29,09,02,19.30
2015,06,29,09,03,19.20
2015,06,29,09,04,19.10
2015,06,29,09,05,19.10
2015,06,29,09,06,19.20
2015,06,29,09,07,19.30
2015,06,29,09,08,19.50
2015,06,29,09,09,19.70
2015,06,29,09,10,19.80
2015,06,29,09,11,19.80
2015,06,29,09,12,19.90
2015,06,29,09,13,20.10
2015,06,29,09,14,20.30
2015,06,29,09,15,20.40
2015,06,29,09,16,20.40
2015,06,29,09,17,20.40
2015,06,29,09,18,20.50
2015,06,29,09,19,20.60
2015,06,29,09,20,20.60
2015,06,29,09,21,20.70
2015,06,29,09,22,20.80
2015,06,29,09,23,20.80
2015,06,29,09,24,20.70
2015,06,29,09,25,20.60
2015,06,29,09,26,20.50
2015,06,29,09,27,20.30
2015,06,29,09,28,20.20
2015,06,29,09,29,20.10
2015,06,29,09,30,19.90
2015,06,29,09,31,19.70
2015,06,29,09,32,19.50
2015,06,29,09,33,19.50
2015,06,29,09,34,19.50
2015,06,29,09,35,19.40
2015,06,29,09,36,19.50
2015,06,29,09,37,19.60
2015,06,29,09,38,19.70
2015,06,29,09,39,19.70
2015,06,29,09,40,19.80
2015,06,29,09,41,19.70
2015,06,29,09,42,19.70
2015,06,29,09,43,19.70
2015,06,29,09,44,19.70
2015,06,29,09,45,19.70
2015,06,29,09,46,19.70
2015,06,29,09,47,19.70
2015,06,29,09,48,19.80
2015,06,29,09,49,19.90
2015,06,29,09,50,20.00
2015,06,29,09,51,20.00
2015,06,29,09,52,19.90
2015,06,29,09,53,19.90
2015,06,29,09,54,19.90
2015,06,29,09,55,20.00
2015,06,29,09,56,20.10
2015,06,29,09,57,20.10
2015,06,29,09,58,20.20
2015,06,29,09,59,20.10
2015,06,29,10,00,20.20
2015,06,29,10,01,20.10
2015,06,29,10,02,20.20
2015,06,29,10,03,20.10
2015,06,29,10,04,20.10
2015,06,29,10,05,20.10
2015,06,29,10,06,20.20
2015,06,29,10,07,20.40
2015,06,29,10,08,20.60
2015,06,29,10,09,20.70
2015,06,29,10,10,20.60
2015,06,29,10,11,20.70
2015,06,29,10,12,20.70
2015,06,29,10,13,20.70
2015,06,29,10,14,20.70
2015,06,29,10,15,20.90
2015,06,29,10,16,20.90
2015,06,29,10,17,21.00
2015,06,29,10,18,21.10
2015,06,29,10,19,21.10
2015,06,29,10,20,21.10
2015,06,29,10,21,21.10
2015,06,29,10,22,21.20
2015,06,29,10,23,21.20
2015,06,29,10,24,21.10
2015,06,29,10,25,21.10
2015,06,29,10,26,21.00
2015,06,29,10,27,21.00
2015,06,29,10,28,21.10
2015,06,29,10,29,21.10
2015,06,29,10,30,21.00
2015,06,29,10,31,21.00
2015,06,29,10,32,20.90
2015,06,29,10,33,20.70
2015,06,29,10,34,20.50
2015,06,29,10,35,20.40
2015,06,29,10,36,20.20
2015,06,29,10,37,20.10
2015,06,29,10,38,20.00
2015,06,29,10,39,19.90
2015,06,29,10,40,19.90
2015,06,29,10,41,20.00
2015,06,29,10,42,20.10
2015,06,29,10,43,20.10
2015,06,29,10,44,20.20
2015,06,29,10,45,20.40
2015,06,29,10,46,20.50
2015,06,29,10,47,20.70
2015,06,29,10,48,20.80
2015,06,29,10,49,20.90
2015,06,29,10,50,20.90
2015,06,29,10,51,20.90
2015,06,29,10,52,20.80
2015,06,29,10,53,20.60
2015,06,29,10,54,20.50
2015,06,29,10,55,20.50
2015,06,29,10,56,20.60
2015,06,29,10,57,20.70
2015,06,29,10,58,20.70
2015,06,29,10,59,20.80
2015,06,29,11,00,20.80
2015,06,29,11,01,20.90
2015,06,29,11,02,21.00
2015,06,29,11,03,21.10
2015,06,29,11,04,21.00
2015,06,29,11,05,20.80
2015,06,29,11,06,20.70
2015,06,29,11,07,20.80
2015,06,29,11,08,20.80
2015,06,29,11,09,20.60
2015,06,29,11,10,20.40
2015,06,29,11,11,20.30
2015,06,29,11,12,20.30
2015,06,29,11,13,20.30
2015,06,29,11,14,20.40
2015,06,29,11,15,20.50
2015,06,29,11,16,20.60
2015,06,29,11,17,20.50
2015,06,29,11,18,20.40
2015,06,29,11,19,20.50
2015,06,29,11,20,20.60
2015,06,29,11,21,20.60
2015,06,29,11,22,20.80
2015,06,29,11,23,20.80
2015,06,29,11,24,20.60
2015,06,29,11,25,20.40
2015,06,29,11,26,20.30
2015,06,29,11,27,20.50
2015,06,29,11,28,20.60
2015,06,29,11,29,20.70
2015,06,29,11,30,20.80
2015,06,29,11,31,20.80
2015,06,29,11,32,20.70
2015,06,29,11,33,20.60
2015,06,29,11,34,20.70
2015,06,29,11,35,20.70
2015,06,29,11,36,20.60
2015,06,29,11,37,20.50
2015,06,29,11,38,20.50
2015,06,29,11,39,20.60
2015,06,29,11,40,20.50
2015,06,29,11,41,20.40
2015,06,29,11,42,20.40
2015,06,29,11,43,20.40
2015,06,29,11,44,20.50
2015,06,29,11,45,20.60
2015,06,29,11,46,20.60
2015,06,29,11,47,20.60
2015,06,29,11,48,20.50
2015,06,29,11,49,20.30
2015,06,29,11,50,20.20
2015,06,29,11,51,20.10
2015,06,29,11,52,20.10
2015,06,29,11,53,20.10
2015,06,29,11,54,20.20
2015,06,29,11,55,20.20
2015,06,29,11,56,20.30
2015,06,29,11,57,20.30
2015,06,29,11,58,20.40
2015,06,29,11,59,20.50
2015,06,29,12,00,20.60
2015,06,29,12,01,20.80
2015,06,29,12,02,20.90
2015,06,29,12,03,20.80
2015,06,29,12,04,20.80
2015,06,29,12,05,20.70
2015,06,29,12,06,20.60
2015,06,29,12,07,20.40
2015,06,29,12,08,20.40
2015,06,29,12,09,20.60
2015,06,29,12,10,20.70
2015,06,29,12,11,20.80
2015,06,29,12,12,20.90
2015,06,29,12,13,21.10
2015,06,29,12,14,21.30
2015,06,29,12,15,21.30
2015,06,29,12,16,21.30
2015,06,29,12,17,21.20
2015,06,29,12,18,21.10
2015,06,29,12,19,21.10
2015,06,29,12,20,21.10
2015,06,29,12,21,21.20
2015,06,29,12,22,21.30
2015,06,29,12,23,21.30
2015,06,29,12,24,21.10
2015,06,29,12,25,20.90
2015,06,29,12,26,21.00
2015,06,29,12,27,21.10
2015,06,29,12,28,21.10
2015,06,29,12,29,21.10
2015,06,29,12,30,21.00
2015,06,29,12,31,21.00
2015,06,29,12,32,21.00
2015,06,29,12,33,21.00
2015,06,29,12,34,21.10
2015,06,29,12,35,21.20
2015,06,29,12,36,21.40
2015,06,29,12,37,21.40
2015,06,29,12,38,21.40
2015,06,29,12,39,21.40
2015,06,29,12,40,21.40
2015,06,29,12,41,21.50
2015,06,29,12,42,21.70
2015,06,29,12,43,21.70
2015,06,29,12,44,21.70
2015,06,29,12,45,21.80
2015,06,29,12,46,21.90
2015,06,29,12,47,22.00
2015,06,29,12,48,22.10
2015,06,29,12,49,22.10
2015,06,29,12,50,22.20
2015,06,29,12,51,22.30
2015,06,29,12,52,22.40
2015,06,29,12,53,22.40
2015,06,29,12,54,22.40
2015,06,29,12,55,22.30
2015,06,29,12,56,22.10
2015,06,29,12,57,21.90
2015,06,29,12,58,21.80
2015,06,29,12,59,21.70
2015,06,29,13,00,21.70
2015,06,29,13,01,21.70
2015,06,29,13,02,21.50
2015,06,29,13,03,21.30
2015,06,29,13,04,21.20
2015,06,29,13,05,21.10
2015,06,29,13,06,21.00
2015,06,29,13,07,20.90
2015,06,29,13,08,20.90
2015,06,29,13,09,20.70
2015,06,29,13,10,20.50
2015,06,29,13,11,20.50
2015,06,29,13,12,20.60
2015,06,29,13,13,20.70
2015,06,29,13,14,20.70
2015,06,29,13,15,20.80
2015,06,29,13,16,21.00
2015,06,29,13,17,21.10
2015,06,29,13,18,21.30
2015,06,29,13,19,21.40
2015,06,29,13,20,21.40
2015,06,29,13,21,21.50
2015,06,29,13,22,21.50
2015,06,29,13,23,21.50
2015,06,29,13,24,21.40
2015,06,29,13,25,21.30
2015,06,29,13,26,21.20
2015,06,29,13,27,21.20
2015,06,29,13,28,21.20
2015,06,29,13,29,21.10
2015,06,29,13,30,21.10
2015,06,29,13,31,21.20
2015,06,29,13,32,21.30
2015,06,29,13,33,21.50
2015,06,29,13,34,21.60
2015,06,29,13,35,21.70
2015,06,29,13,36,21.70
2015,06,29,13,37,21.50
2015,06,29,13,38,21.30
2015,06,29,13,39,21.30
2015,06,29,13,40,21.30
2015,06,29,13,41,21.30
2015,06,29,13,42,21.40
2015,06,29,13,43,21.50
2015,06,29,13,44,21.60
2015,06,29,13,45,21.60
2015,06,29,13,46,21.50
2015,06,29,13,47,21.40
2015,06,29,13,48,21.30
2015,06,29,13,49,21.50
2015,06,29,13,50,21.60
2015,06,29,13,51,21.70
2015,06,29,13,52,21.80
2015,06,29,13,53,22.00
2015,06,29,13,54,22.10
2015,06,29,13,55,22.30
2015,06,29,13,56,22.40
2015,06,29,13,57,22.50
2015,06,29,13,58,22.60
2015,06,29,13,59,22.70
2015,06,29,14,00,22.60
2015,06,29,14,01,22.40
2015,06,29,14,02,22.20
2015,06,29,14,03,22.10
2015,06,29,14,04,22.10
2015,06,29,14,05,22.10
2015,06,29,14,06,22.20
2015,06,29,14,07,22.20
2015,06,29,14,08,22.30
2015,06,29,14,09,22.30
2015,06,29,14,10,22.30
2015,06,29,14,11,22.40
2015,06,29,14,12,22.40
2015,06,29,14,13,22.40
2015,06,29,14,14,22.40
2015,06,29,14,15,22.30
2015,06,29,14,16,22.10
2015,06,29,14,17,22.10
2015,06,29,14,18,22.10
2015,06,29,14,19,22.20
2015,06,29,14,20,22.20
2015,06,29,14,21,22.30
2015,06,29,14,22,22.30
2015,06,29,14,23,22.40
2015,06,29,14,24,22.30
2015,06,29,14,25,22.20
2015,06,29,14,26,22.10
2015,06,29,14,27,21.90
2015,06,29,14,28,21.80
2015,06,29,14,29,21.80
2015,06,29,14,30,21.70
2015,06,29,14,31,21.60
2015,06,29,14,32,21.60
2015,06,29,14,33,21.50
2015,06,29,14,34,21.30
2015,06,29,14,35,21.20
2015,06,29,14,36,21.10
2015,06,29,14,37,20.90
2015,06,29,14,38,20.80
2015,06,29,14,39,20.70
2015,06,29,14,40,20.70
2015,06,29,14,41,20.70
2015,06,29,14,42,20.60
2015,06,29,14,43,20.40
2015,06,29,14,44,20.40
2015,06,29,14,45,20.30
2015,06,29,14,46,20.20
2015,06,29,14,47,20.00
2015,06,29,14,48,19.80
2015,06,29,14,49,19.80
2015,06,29,14,50,19.70
2015,06,29,14,51,19.60
2015,06,29,14,52,19.50
2015,06,29,14,53,19.40
2015,06,29,14,54,19.50
2015,06,29,14,55,19.60
2015,06,29,14,56,19.60
2015,06,29,14,57,19.60
2015,06,29,14,58,19.60
2015,06,29,14,59,19.60
2015,06,29,15,00,19.60
2015,06,29,15,01,19.70
2015,06,29,15,02,19.60
2015,06,29,15,03,19.60
2015,06,29,15,04,19.60
2015,06,29,15,05,19.50
2015,06,29,15,06,19.50
2015,06,29,15,07,19.60
2015,06,29,15,08,19.60
2015,06,29,15,09,19.70
2015,06,29,15,10,19.80
2015,06,29,15,11,19.80
2015,06,29,15,12,19.80
2015,06,29,15,13,19.80
2015,06,29,15,14,19.70
2015,06,29,15,15,19.70
2015,06,29,15,16,19.70
2015,06,29,15,17,19.80
2015,06,29,15,18,19.90
2015,06,29,15,19,20.00
2015,06,29,15,20,20.10
2015,06,29,15,21,20.00
2015,06,29,15,22,19.90
2015,06,29,15,23,19.70
2015,06,29,15,24,19.50
2015,06,29,15,25,19.30
2015,06,29,15,26,19.30
2015,06,29,15,27,19.30
2015,06,29,15,28,19.30
2015,06,29,15,29,19.40
2015,06,29,15,30,19.40
2015,06,29,15,31,19.40
2015,06,29,15,32,19.50
2015,06,29,15,33,19.60
2015,06,29,15,34,19.70
2015,06,29,15,35,19.70
2015,06,29,15,36,19.60
2015,06,29,15,37,19.40
2015,06,29,15,38,19.40
2015,06,29,15,39,19.40
2015,06,29,15,40,19.30
2015,06,29,15,41,19.20
2015,06,29,15,42,19.20
2015,06,29,15,43,19.10
2015,06,29,15,44,19.10
2015,06,29,15,45,19.10
2015,06,29,15,46,19.20
2015,06,29,15,47,19.30
2015,06,29,15,48,19.30
2015,06,29,15,49,19.30
2015,06,29,15,50,19.40
2015,06,29,15,51,19.30
2015,06,29,15,52,19.40
2015,06,29,15,53,19.40
2015,06,29,15,54,19.40
2015,06,29,15,55,19.50
2015,06,29,15,56,19.60
2015,06,29,15,57,19.70
2015,06,29,15,58,19.80
2015,06,29,15,59,19.70
2015,06,29,16,00,19.70
2015,06,29,16,01,19.70
2015,06,29,16,02,19.70
2015,06,29,16,03,19.60
2015,06,29,16,04,19.70
2015,06,29,16,05,19.70
2015,06,29,16,06,19.70
2015,06,29,16,07,19.60
2015,06,29,16,08,19.70
2015,06,29,16,09,19.70
2015,06,29,16,10,19.60
2015,06,29,16,11,19.50
2015,06,29,16,12,19.40
2015,06,29,16,13,19.30
2015,06,29,16,14,19.30
2015,06,29,16,15,19.30
2015,06,29,16,16,19.20
2015,06,29,16,17,19.20
2015,06,29,16,18,19.30
2015,06,29,16,19,19.40
2015,06,29,16,20,19.50
2015,06,29,16,21,19.50
2015,06,29,16,22,19.50
2015,06,29,16,23,19.60
2015,06,29,16,24,19.50
2015,06,29,16,25,19.50
2015,06,29,16,26,19.50
2015,06,29,16,27,19.60
2015,06,29,16,28,19.70
2015,06,29,16,29,19.80
2015,06,29,16,30,19.70
2015,06,29,16,31,19.60
2015,06,29,16,32,19.60
2015,06,29,16,33,19.60
2015,06,29,16,34,19.60
2015,06,29,16,35,19.60
2015,06,29,16,36,19.70
2015,06,29,16,37,19.70
2015,06,29,16,38,19.50
2015,06,29,16,39,19.40
2015,06,29,16,40,19.30
2015,06,29,16,41,19.20
2015,06,29,16,42,19.00
2015,06,29,16,43,18.80
2015,06,29,16,44,18.60
2015,06,29,16,45,18.50
2015,06,29,16,46,18.60
2015,06,29,16,47,18.60
2015,06,29,16,48,18.60
2015,06,29,16,49,18.70
2015,06,29,16,50,18.70
2015,06,29,16,51,18.70
2015,06,29,16,52,18.70
2015,06,29,16,53,18.70
2015,06,29,16,54,18.70
2015,06,29,16,55,18.70
2015,06,29,16,56,18.80
2015,06,29,16,57,18.90
2015,06,29,16,58,19.00
2015,06,29,16,59,19.10
2015,06,29,17,00,19.20
2015,06,29,17,01,19.30
2015,06,29,17,02,19.40
2015,06,29,17,03,19.40
2015,06,29,17,04,19.60
2015,06,29,17,05,19.60
2015,06,29,17,06,19.70
2015,06,29,17,07,19.70
2015,06,29,17,08,19.70
2015,06,29,17,09,19.70
2015,06,29,17,10,19.70
2015,06,29,17,11,19.70
2015,06,29,17,12,19.80
2015,06,29,17,13,19.80
2015,06,29,17,14,19.90
2015,06,29,17,15,19.80
2015,06,29,17,16,19.80
2015,06,29,17,17,19.80
2015,06,29,17,18,19.80
2015,06,29,17,19,19.70